{"data":{"norad_id":39091,"intl_designator":"2013-009F","name":"BRITE-AUSTRIA","alt_names":[],"object_type":"PAYLOAD","status":"ACTIVE","operator":null,"country":"ASRA","launch_date":"2013-02-25","launch_site_code":"SRILR","launch_vehicle":null,"mission":null,"orbit_class":"UNKNOWN","rcs_meters":0.104,"size_class":null,"mass_kg":null,"dimensions":null,"purposes":["science","tech_demo"],"wikipedia_slug":null,"has_3d_model":false,"image_url":null,"decayed_at":null,"tle_current":{"epoch":"2026-09-19T17:23:23.358624Z","epoch_age_seconds":81414,"freshness":"FRESH","line1":"1 39091U 13009F   26262.72457591  .00000096  00000+0  47116-4 0  9990","line2":"2 39091  98.4048  79.8578 0009442 323.6501  36.4043 14.36572650710625","mean_motion":14.3657265,"eccentricity":0.0009442,"inclination_deg":98.4048,"raan_deg":79.8578,"arg_perigee_deg":323.6501,"mean_anomaly_deg":36.4043,"bstar":4.7116e-5,"rev_number":71062,"period_min":100.23857825777,"perigee_km":763.09579614567,"apogee_km":776.59404520467,"semimajor_km":7147.9819206752,"source":"CELESTRAK","updated_at":"2026-09-20T09:00:48.020997Z"}}}